934  
ASUS42 KRAH 070010  
RWRRAH  
NORTH CAROLINA WEATHER ROUNDUP  
NATIONAL WEATHER SERVICE RALEIGH NC  
800 PM EDT MON APR 06 2020  
 
NOTE: "FAIR" INDICATES FEW OR NO CLOUDS BELOW 12,000 FEET WITH NO  
SIGNIFICANT WEATHER AND/OR S TO VISIBILITY
.  
 
NCZ001-053-055-056-065-067-070100-  
WESTERN NORTH CAROLINA  
 
CITY SKY/WX TMP DP RH WIND PRES REMARKS
 
ASHEVILLE MOCLDY 71 43 36 NW8 30.05R  
JEFFERSON FAIR 60 47 63 W7 30.08S  
MORGANTON FAIR 73 41 31 SW7 30.04R  
HICKORY MOCLDY 72 47 40 SW7 29.99R  
WILKESBORO NOT AVBL  
RUTHERFORDTON MOCLDY 70 50 49 SW9 30.01S  
MOUNT AIRY FAIR 74 45 35 W3 30.01R  
BOONE N/A 65 40 39 CALM 30.09S  

 
 
NCZ021-022-025-041-071-084-088-070100-  
CENTRAL NORTH CAROLINA  
 
CITY SKY/WX TMP DP RH WIND PRES REMARKS
 
CHARLOTTE FAIR 71 49 45 CALM 29.99R  
GREENSBORO FAIR 67 55 65 SW6 29.96S  
WINSTON-SALEM FAIR 72 54 53 S5 29.99R  
RALEIGH-DURHAM FAIR 63 58 83 CALM 29.97S  
FORT BRAGG FAIR 73 48 40 S5 29.97R  
FAYETTEVILLE LGT RAIN 71 58 63 SW9 29.97R  
BURLINGTON FAIR 68 58 70 S3 29.97S  
ROXBORO FAIR 63 55 77 CALM 29.98S  
HENDERSON FAIR 61 57 85 CALM 29.97S  
LOUISBURG FAIR 63 59 88 CALM 30.00R  
LAURINBURG CLOUDY 71 55 56 N13 30.01R THUNDER  

 
 
NCZ011-015-027-028-043-044-047-080-103-070100-  
NORTHEASTERN NORTH CAROLINA  
 
CITY SKY/WX TMP DP RH WIND PRES REMARKS
 
ROCKY MT-WILSO FAIR 63 60 90 NE6 29.98R  
GREENVILLE FAIR 63 59 88 E6 30.00R  
WASHINGTON FAIR 60 57 91 NE9 29.99S  
ELIZABETH CITY FAIR 59 53 80 NE5 30.01F  
MANTEO MOCLDY 55 52 89 E6 30.02F  
CAPE HATTERAS CLOUDY 63 57 81 SW9 29.98S  

 
 
NCZ078-087-090-091-093-098-101-070100-  
SOUTHEASTERN NORTH CAROLINA  
 
CITY SKY/WX TMP DP RH WIND PRES REMARKS
 
GOLDSBORO MOCLDY 66 59 77 S3 29.96R THUNDER  
KINSTON MOCLDY 63 59 88 CALM 30.00R  
KENANSVILLE HVY RAIN 64 61 88 W7 30.00R  
NEW BERN CLOUDY 61 59 93 S6 30.00F  
CHERRY POINT TSTM 63 59 87 NE6 30.02R VSB 1/2  
BEAUFORT HVY RAIN 63 59 87 NE9G30 30.02R FOG  
JACKSONVILLE MOCLDY 63 57 81 S6 29.98S  
WILMINGTON FAIR 69 55 60 SW12 29.99F  

 
 
 
 
CLICK HERE TO GO TO PREVIOUS BULLETINS.

The Nexlab NC Page Main Text Page